Retour au catalogue

BREEZE-M R/B

ActifMEO
NORAD 32479·ROCKET BODY·🇷🇺 Russia

Lancé Jan 28, 2008 depuis Baikonur Cosmodrome

Loading…

Prochains Passages (prochaines 24 heures)

TLE

FraisSource: Space-Track

Époque: Sep 14, 2026, 01:55 UTC

1 32479U 08003B   26257.08025010 -.00000138  00000-0  00000-0 0  9997
2 32479  11.4401  26.2968 0197611 241.9363 132.6860  1.04003041 70538

Suivez BREEZE-M R/B en temps réel avec AllMySat

Download on the App Store